Flag for Portugal Weather past 2 weeks in Loures, Portugal

Now
50 °F

Clear.


Feels Like: 49 °F
Forecast: 52 / 70 °F
Wind: 3 mph from North

Location: Lisbon Portela Airport

Current Time: Mar 30, 2015 at 3:04:29 AM

Latest Report: Mar 30, 2015 at 2:00 AM


Visibility: 10 mi

Pressure: 30.45 "Hg

Humidity: 88%

Dew point: 46 °F

Location of LouresLocation

Historic Weather in Loures — Graph

°F

Loures temperature yesterday

Maximum temperature yesterday: 66 °F (at 1:30 PM)
Minimum temperature yesterday: 50 °F (at 12:30 AM)
Average temperature yesterday: 57 °F

Past Weeks' High & Low Weather Summary

 TemperatureHumidityPressure
High68 °F (Mar 20, 2:00 PM)100% (Mar 17, 8:00 AM)30.45 "Hg (Mar 17, 8:00 AM)
Low46 °F (Mar 15, 11:30 PM)24% (Mar 15, 2:30 PM)29.65 "Hg (Mar 24, 4:30 AM)
Average55 °F74%30.00 "Hg
* Reported Mar 15 1:00 AM — Mar 30 2:00 AM, Loures, Weather by CustomWeather, © 2015

Note: Actual official high and low records may vary slightly from our data, if they occured in-between our weather recording intervals... More about our weather records

Advertising

Loures weather history for previous 24 hours

 ConditionsComfort  
Time TempWeatherWind HumidityBarometerVisibility
2:00 AM
Mon, Mar 30
50 °FClear.3 mph88%30.45 "Hg10 mi
1:30 AM52 °FPassing clouds.3 mph88%30.45 "HgN/A
1:00 AM52 °FPassing clouds.8 mph88%30.45 "HgN/A
12:30 AM52 °FPassing clouds.9 mph88%30.45 "HgN/A
12:00 AM52 °FPassing clouds.6 mph88%30.45 "HgN/A
11:30 PM
Sun, Mar 29
52 °FPassing clouds.3 mph88%30.45 "HgN/A
11:00 PM52 °FPassing clouds.6 mph88%30.45 "HgN/A
10:00 PM54 °FPassing clouds.17 mph82%30.45 "HgN/A
9:30 PM54 °FPassing clouds.17 mph82%30.45 "HgN/A
9:00 PM55 °FPassing clouds.14 mph77%30.42 "HgN/A
8:30 PM55 °FPassing clouds.17 mph82%30.42 "HgN/A
8:00 PM55 °FPassing clouds.20 mph82%30.42 "HgN/A
7:55 PM55 °FPassing clouds.20 mph82%30.42 "HgN/A
7:30 PM57 °FPassing clouds.18 mph77%30.42 "HgN/A
7:00 PM59 °FPassing clouds.17 mph72%30.42 "HgN/A
6:30 PM61 °FPassing clouds.20 mph68%30.39 "HgN/A
6:00 PM63 °FPassing clouds.20 mph64%30.42 "HgN/A
5:30 PM63 °FPassing clouds.21 mph64%30.42 "HgN/A
5:00 PM63 °FPassing clouds.13 mph68%30.42 "HgN/A
4:30 PM64 °FPassing clouds.15 mph64%30.39 "HgN/A
4:00 PM64 °FPassing clouds.16 mph64%30.42 "HgN/A
3:30 PM64 °FPassing clouds.20 mph64%30.42 "HgN/A
3:00 PM66 °FPassing clouds.16 mph64%30.42 "HgN/A
2:30 PM66 °FPassing clouds.18 mph64%30.42 "HgN/A
2:00 PM66 °FPassing clouds.16 mph64%30.42 "HgN/A
1:30 PM66 °FPassing clouds.14 mph68%30.42 "HgN/A
1:00 PM64 °FPassing clouds.15 mph73%30.42 "HgN/A
12:30 PM63 °FPassing clouds.13 mph73%30.42 "HgN/A
12:00 PM61 °FPassing clouds.10 mph77%30.42 "HgN/A
11:30 AM61 °FPassing clouds.16 mph77%30.45 "HgN/A
11:00 AM59 °FPassing clouds.10 mph77%30.45 "HgN/A
10:30 AM57 °FPassing clouds.13 mph82%30.45 "HgN/A
10:00 AM57 °FPassing clouds.9 mph82%30.45 "HgN/A
9:30 AM55 °FPassing clouds.8 mph88%30.42 "HgN/A
9:00 AM55 °FPassing clouds.7 mph82%30.42 "HgN/A
8:30 AM54 °FPassing clouds.12 mph88%30.42 "HgN/A
8:00 AM52 °FPassing clouds.10 mph94%30.42 "HgN/A
7:00 AM52 °FPassing clouds.23 mph94%30.39 "HgN/A
6:53 AM52 °FPassing clouds.24 mph94%30.39 "HgN/A
6:30 AM52 °FPassing clouds.13 mph88%30.39 "HgN/A
6:00 AM52 °FPassing clouds.15 mph94%30.39 "HgN/A
5:30 AM52 °FPassing clouds.17 mph94%30.39 "HgN/A
5:00 AM52 °FPassing clouds.9 mph88%30.39 "HgN/A
4:00 AM54 °FPassing clouds.13 mph82%30.39 "HgN/A
3:30 AM52 °FPassing clouds.5 mph88%30.42 "HgN/A
3:00 AM52 °FPassing clouds.6 mph88%30.42 "HgN/A
Weather by CustomWeather, © 2015

See weather overviewHow to use our weather pages